Regional Weather Roundup
Issued by NWS

Home | Current Version | Previous Version | Graphics & Text | Print | Product List | Glossary On
Versions: 1 2 3 4 5 6 7 8 9 10 11 12 13 14 15 16 17 18 19 20 21 22 23 24 25 26 27 28 29 30 31 32 33 34 35 36 37 38 39 40 41 42 43 44 45 46 47 48 49 50
000
ASUS43 KFSD 290702
RWRSD

WEATHER ROUNDUP FOR SOUTH DAKOTA
NATIONAL WEATHER SERVICE SIOUX FALLS SD
100 AM CST MON DEC 29 2014

NOTE: "FAIR" INDICATES FEW OR NO CLOUDS BELOW 12,000 FEET WITH NO
SIGNIFICANT WEATHER AND/OR OBSTRUCTIONS TO VISIBILITY.


SDZ001>005-009-010-012>017-290800-
NORTHWEST AND NORTH CENTRAL SOUTH DAKOTA

CITY           SKY/WX    TMP DP  RH WIND       PRES   REMARKS
BUFFALO          N/A      8   4  83 NE15      30.20R WCI  -9
FAITH            N/A      7   2  80 NE14      30.29R WCI -10
MOBRIDGE       FLURRIES   7   1  76 N13       30.37R WCI  -9
$$

SDZ012>016-024>037-041>051-057-063-072>074-290800-
SOUTHWEST AND SOUTH CENTRAL SOUTH DAKOTA

CITY           SKY/WX    TMP DP  RH WIND       PRES   REMARKS
RAPID CTY ARPT LGT SNOW  14  11  87 NE13      30.20R FOG     WCI   0
PIERRE         CLOUDY     6   1  80 NE13      30.34R WCI -10
CUSTER         LGT SNOW  11   8  88 NE10      30.00R FOG     WCI  -3
ELLSWORTH AFB  FLURRIES  14  10  85 NE6       30.20  WCI   5
PHILIP         LGT SNOW  12   7  79 NE14      30.28R WCI  -3
PINE RIDGE     FLURRIES  15  10  80 N9        30.13R WCI   3
WINNER         LGT SNOW  17  13  84 NE15      30.26R WCI   2
$$

SDZ004>011-016>023-039-040-290800-
NORTHEAST SOUTH DAKOTA

CITY           SKY/WX    TMP DP  RH WIND       PRES   REMARKS
ABERDEEN       CLOUDY     3  -4  72 NE18      30.45R WCI -17
WATERTOWN      MOCLDY     2  -3  80 NE12      30.34S WCI -15
SISSETON         N/A      0  -5  79 N13       30.47R WCI -18
$$

SDZ017-020-022-023-036>040-048>070-290800-
SOUTHEAST SOUTH DAKOTA

CITY           SKY/WX    TMP DP  RH WIND       PRES   REMARKS
SIOUX FALLS    MIX PCPN  12   8  84 NE14      30.31S WCI  -3
HURON          LGT SNOW  10   6  84 N9        30.37R FOG     WCI  -3
MITCHELL       LGT SNOW  13   9  84 NE12      30.35R FOG     WCI  -1
YANKTON        PTCLDY    18  14  86 NE10      30.30R WCI   6
$$

ABBREVIATIONS USED IN REMARKS
   TC - TEMPERATURE IN CELSIUS
  WCI - WIND CHILL INDEX
   HX - HEAT INDEX
  VSB - VISIBILITY



USA.gov is the U.S. government's official web portal to all federal, state and local government web resources and services.